EHI
0 0 0 0 0 0 0 0 0 0 0 0 0 0 0 0 0 0 0 0 0 0 0 0 0 0 0 0 0 0 0 0 0 0 0 0 0 0 0 0 0 0 0 0
0 0 0 0 0 0 0 0 0 0 0 0 0 0 0 0 0 0 0 0 0 0 0 0 0 0 0 0 0 0 0 0 0 0 0 0 0 0 0 0 0 0 0 0
0 0 0 0 0 0 0 0 0 0 0 0 0 0 0 0 0 0 0 0 0 0 0 0 0 0 0 0 0 0 0 0 0 0 0 0 0 0 0 0 0 0 0 0
0 0 0 0 0 0 0 0 0 0 0 0 0 0 0 0 0 0 0 0 0 0 0 0 0 0 0 0 0 0 0 0 0 0 0 0 0 0 0 0 0 0 0 0
0 0 0 0 0 0 0 0 0 0 0 0 0 0 0 0 0 0 0 0 0 0 0 0 0 0 0 0 0 0 0 0 0 0 0 0 0 0 0 0 0 0 0 0
0 0 0 0 0 0 0 0 0 0 0 0 0 0 0 0 0 0 0 0 0 0 0 0 0 0 0 0 0 0 0 0 0 0 0 0 0 0 0 0 0 0 0 0
0 0 0 0 0 0 0 0 0 0 0 0 0 0 0 0 0 0 0 0 0 0 0 0 0 0 0 0 0 0 0 0 0 0 0 0 0 0 0 0 0 0 0 0
0 0 0 0 0 0 0 0 0 0 0 0 0 0 0 0 0 0 0 0 0 0 0 0 0 0 0 0 0 0 0 0 0 0 0 0 0 0 0 0 0 0 0 0
0 0 0 0 0 0 0 0 0 0 0 0 0 0 0 0 0 0 0 0 0 0 0 0 0 0 0 0 0 0 0 0 0 0 0 0 0 0 0 0 0 0 0 0
0 0 0 0 0 0 0 0 0 0 0 0 0 0 0 0 0 0 0 0 0 0 0 0 0 0 0 0 0 0 0 0 0 0 0 0 0 0 0 0 0 0 0 0
0 0 0 0 0 0 0 0 0 0 0 0 0 0 0 0 0 0 0 0 0 0 0 0 0 0 0 0 0 0 0 0 0 0 0 0 0 0 0 0 0 0 0 0
0 0 0 0 0 0 0 0 0 0 0 0 0 0 0 0 0 0 0 0 0 0 0 0 0 0 0 0 0 0 0 0 0 0 0 0 0 0 0 0 0 0 0 0
0 0 0 0 0 0 0 0 0 0 0 0 0 0 0 0 0 0 0 0 0 0 0 0 0 0 0 0 0 0 0 0 0 0 0 0 0 0 0 0 0 0 0 0
0 0 0 0 0 0 0 0 0 0 0 0 0 0 0 0 0 0 0 0 0 0 0 0 0 0 0 0 0 0 0 0 0 0 0 0 0 0 0 0 0 0 0 0
0 0 0 0 0 0 0 0 0 0 0 0 0 0 0 0 0 0 0 0 0 0 0 0 0 0 0 0 0 0 0 0 0 0 0 0 0 0 0 0 0 0 0 0
0 0 0 0 0 0 0 0 0 0 0 0 0 0 0 0 0 0 0 0 0 0 0 0 0 0 0 0 0 0 0 0 0 0 0 0 0 0 0 0 0 0 0 0
0 0 0 0 0 0 0 0 0 0 0 0 0 0 0 0 0 0 0 0 0 0 0 0 0 0 0 0 0 0 0 0 0 0 0 0 0 0 0 0 0 0 0 0
0 0 0 0 0 0 0 0 0 0 0 0 0 0 0 0 0 0 0 0 0 0 0 0 0 0 0 0 0 0 0 0 0 0 0 0 0 0 0 0 0 0 0 0
0 0 0 0 0 0 0 0 0 0 0 0 0 0 0 0 0 0 0 0 0 0 0 0 0 0 0 0 0 0 0 0 0 0 0 0 0 0 0 0 0 0 0 0
0 0 0 0 0 0 0 0 0 0 0 0 0 0 0 0 0 0 0 0 0 0 0 0 0 0 0 0 0 0 0 0 0 0 0 0 0 0 0 0 0 0 0 0
0 0 0 0 0 0 0 0 0 0 0 0 0 0 0 0 0 0 0 0 0 0 0 0 0 0 0 0 0 0 0 0 0 0 0 0 0 0 0 0 0 0 0 0
0 0 0 0 0 0 0 0 0 0 0 0 0 0 0 0 0 0 0 0 0 0 0 0 0 0 0 0 0 0 0 0 0 0 0 0 0 0 0 0 0 0 0 0
0 0 0 0 0 0 0 0 0 0 0 0 0 0 0 0 0 0 0 0 0 0 0 0 0 0 0 0 0 0 0 0 0 0 0 0 0 0 0 0 0 0 0 0
0 0 0 0 0 0 0 0 0 0 0 0 0 0 0 0 0 0 0 0 0 0 0 0 0 0 0 0 0 0 0 0 0 0 0 0 0 0 0 0 0 0 0 0
0 0 0 0 0 0 0 0 0 0 0 0 0 0 0 0 0 0 0 0 0 0 0 0 0 0 0 0 0 0 0 0 0 0 0 0 0 0 0 0 0 0 0 0
0 0 0 0 0 0 0 0 0 0 0 0 0 0 0 0 0 0 0 0 0 0 0 0 0 0 0 0 0 0 0 0 0 0 0 0 0 0 0 0 0 0 0 0
0 0 0 0 0 0 0 0 0 0 0 0 0 0 0 0 0 0 0 0 0 0 0 0 0 0 0 0 0 0 0 0 0 0 0 0 0 0 0 0 0 0 0 0
Wind_Speed
8 7 6 8 10 8 10 10 10 10 9 11 8 6 5 4 3 2 2 3 3 3 3 3 2 2 3 2 2 2 2 3 3 3 2 2 2 3 2 2 3 3 3 3
6 5 6 10 12 11 12 11 12 10 12 9 5 3 3 4 4 4 4 4 4 3 4 4 4 4 3 3 3 2 3 4 3 2 2 2 2 2 2 2 2 2 3 3
6 4 4 10 10 11 8 8 9 13 12 4 3 5 6 6 6 6 5 5 4 5 5 4 4 4 4 4 3 3 3 3 3 3 3 3 2 2 2 2 2 3 3 3
3 1 10 9 3 7 7 7 8 6 5 5 7 5 4 5 7 6 5 5 5 4 4 3 3 3 3 3 3 3 3 3 3 3 3 2 2 3 3 2 3 3 4 4
3 5 10 8 3 5 6 7 7 9 6 4 2 1 3 3 5 6 5 5 4 4 3 3 3 3 2 2 2 3 3 4 3 3 3 3 3 3 3 2 3 3 3 4
5 6 8 6 2 2 3 5 4 6 6 4 4 2 5 3 3 3 2 2 2 2 2 2 2 2 2 3 3 4 4 4 3 3 3 3 4 3 2 2 3 3 3 4
7 8 9 6 2 3 4 5 1 3 4 5 6 6 3 1 1 2 2 2 2 2 2 3 2 2 3 3 5 5 3 2 2 3 3 3 2 2 2 2 2 3 4 4
6 7 11 3 3 5 5 1 0 1 2 3 3 2 1 1 1 1 1 1 1 2 2 2 2 3 3 4 4 2 2 2 2 2 2 2 2 2 2 2 2 3 4 4
9 8 3 2 4 3 1 1 1 1 2 2 3 3 2 2 2 2 2 2 1 2 2 2 2 3 4 4 2 2 1 2 2 2 2 2 2 2 2 2 2 3 3 4
5 6 5 4 3 3 2 2 2 2 2 2 2 2 2 2 2 2 2 2 1 1 2 3 3 3 4 3 2 2 2 2 2 2 2 2 2 2 2 3 3 3 4 4
6 6 4 4 4 4 3 2 1 1 1 2 2 2 3 3 3 3 2 2 1 2 3 4 3 3 3 2 2 2 2 2 2 2 2 2 3 3 3 4 4 4 4 4
8 6 5 6 5 3 3 3 3 2 2 2 3 4 3 3 3 3 3 2 2 3 3 3 3 3 3 2 3 3 2 2 2 2 2 2 3 4 5 6 9 10 10 8
8 6 5 6 4 4 4 4 4 4 4 3 3 3 3 3 3 3 3 3 4 4 4 4 3 4 4 3 3 4 4 3 2 2 2 2 2 3 4 5 6 8 9 10
5 3 5 5 5 5 4 4 3 3 3 3 3 3 3 3 3 4 4 5 5 4 4 4 4 5 4 3 3 4 4 4 4 3 3 3 3 3 3 4 5 5 6 10
5 4 6 5 4 3 2 2 2 2 3 3 3 3 3 4 5 5 5 4 3 4 4 4 5 6 4 3 4 4 4 3 3 3 3 3 3 3 3 4 5 6 5 6
4 3 3 3 3 3 2 2 3 4 4 4 4 4 5 5 5 5 4 3 4 5 5 5 6 6 4 4 4 4 4 6 5 3 3 3 3 4 4 4 5 5 6 6
2 3 3 4 4 4 4 4 5 5 5 5 5 5 4 4 4 5 5 5 5 6 6 6 7 5 4 4 4 4 4 5 7 4 4 4 4 4 4 4 5 6 6 7
4 5 5 4 4 4 5 4 4 4 5 5 5 4 4 4 5 6 5 4 4 5 6 6 6 5 5 5 4 4 4 4 4 4 4 4 4 4 4 5 6 7 6 7
3 3 3 4 4 4 4 5 5 5 5 4 4 5 5 6 6 6 5 4 5 7 7 5 6 5 5 5 5 3 4 4 4 4 4 6 6 4 5 5 6 6 6 6
3 3 4 4 3 3 4 4 4 4 4 4 4 5 5 6 6 5 5 5 6 6 5 5 5 4 5 5 5 3 4 4 5 4 4 4 5 5 5 6 6 6 6 6
4 4 4 4 4 4 4 4 4 5 5 4 4 5 6 6 4 4 4 5 6 5 5 7 4 4 4 5 5 4 4 5 5 5 5 5 5 6 6 6 6 7 6 6
4 4 4 4 4 5 5 4 4 5 5 4 4 5 5 5 5 4 5 5 5 6 4 3 3 5 6 7 4 4 5 5 5 5 5 5 6 6 6 6 6 6 6 6
4 4 4 4 4 5 5 4 4 4 4 5 5 5 5 5 4 4 6 4 3 6 5 4 6 9 10 5 3 4 5 5 5 5 5 6 6 6 6 7 7 6 6 6
5 5 5 4 3 4 5 6 5 4 4 5 5 5 5 4 4 4 5 7 8 8 5 6 10 11 10 4 4 4 5 5 5 5 5 6 6 6 6 7 7 6 6 7
5 5 5 4 4 4 5 5 5 5 5 4 5 5 4 4 5 5 4 5 8 8 5 7 10 11 6 4 4 5 5 5 5 5 5 6 6 6 6 6 6 6 6 6
5 4 5 5 5 4 4 4 4 4 4 5 5 4 4 4 5 5 4 5 6 8 6 4 5 6 4 4 5 5 5 6 7 6 6 6 6 6 6 6 7 6 6 6
4 4 4 4 4 4 3 4 4 5 4 5 6 5 4 4 4 4 5 4 5 5 5 4 4 4 5 5 5 5 5 5 5 5 5 6 6 6 6 7 6 5 5 5
Wind_Direction
248 254 243 244 243 218 211 211 220 241 243 256 250 236 233 218 192 179 188 194 194 195 199 200 201 203 201 206 202 184 183 206 226 232 231 232 238 241 238 234 239 237 239 249
271 260 255 262 250 231 229 226 232 248 261 255 250 221 215 207 191 196 207 212 211 204 200 204 209 209 206 210 210 193 201 221 229 226 230 237 245 248 248 250 253 250 242 241
269 287 314 267 236 210 211 211 202 227 240 234 226 215 212 206 202 205 211 216 215 214 212 213 213 208 209 212 202 197 214 230 231 223 230 239 244 244 244 247 249 252 249 243
258 294 245 246 207 191 206 230 216 225 233 217 220 220 220 204 198 208 211 214 221 220 218 218 214 216 216 203 195 203 215 227 229 221 230 240 241 244 245 244 245 249 250 248
207 241 269 286 252 184 195 250 220 219 230 229 213 69 299 236 200 205 211 214 218 217 213 212 219 218 198 206 205 213 228 233 229 218 225 232 241 248 246 246 255 255 257 253
200 228 246 250 247 194 143 267 249 206 213 201 141 191 255 238 206 209 210 203 200 195 186 210 232 197 186 217 218 231 236 234 224 214 217 229 240 248 248 247 259 269 273 265
215 235 260 257 242 130 183 247 264 201 197 180 191 214 224 210 215 213 209 206 188 181 200 225 221 184 208 227 235 241 240 232 228 224 226 231 235 241 249 261 275 276 276 275
196 221 250 232 139 185 220 273 271 248 209 195 216 224 199 198 212 214 220 220 201 201 235 245 211 187 219 238 245 237 220 230 241 244 246 240 230 250 247 245 268 278 283 288
201 218 252 193 211 239 198 225 263 250 255 201 208 222 228 225 224 226 229 235 233 217 242 254 225 200 218 240 226 200 201 230 248 258 260 248 234 247 261 248 254 272 276 281
251 266 278 274 281 289 247 229 237 221 220 208 211 221 237 239 241 245 253 244 233 216 235 253 245 233 230 234 208 188 212 239 246 248 266 265 250 241 245 250 257 265 268 274
251 272 300 289 272 260 266 257 249 263 227 210 207 235 235 241 250 249 252 252 230 223 238 252 254 249 243 220 187 199 226 242 255 251 253 265 261 247 245 242 238 252 258 258
245 237 234 263 269 267 253 249 237 234 260 256 222 229 232 236 246 249 248 241 235 238 244 255 253 251 248 221 193 198 228 246 248 253 259 262 275 290 269 260 270 268 266 263
250 258 254 267 268 248 242 247 239 227 225 235 238 225 226 242 249 246 248 243 239 240 242 245 249 256 255 234 211 211 221 234 238 240 248 258 265 274 293 298 286 282 282 283
253 261 267 264 262 255 242 241 242 238 229 219 226 229 227 239 249 248 248 247 244 244 245 242 244 254 252 231 217 223 228 235 235 235 239 245 250 255 262 279 296 295 290 289
257 247 251 267 270 265 250 236 238 253 256 259 247 241 238 239 245 250 253 253 248 246 248 244 246 256 252 228 223 229 231 237 236 237 239 243 248 255 259 264 271 279 287 291
268 273 264 263 259 263 263 247 242 250 250 252 253 249 244 242 248 257 259 247 239 247 249 247 250 255 246 231 233 238 239 245 244 239 241 246 249 254 259 262 267 271 273 276
251 267 264 273 274 275 262 250 248 254 257 254 254 256 257 256 261 263 262 252 240 244 246 244 249 252 240 231 228 235 239 247 249 248 241 243 246 249 255 261 266 270 270 274
238 244 245 245 255 268 275 271 261 258 257 259 259 252 246 243 249 258 263 263 260 265 259 248 247 248 242 235 229 230 232 238 239 240 244 246 250 249 252 258 265 271 276 280
280 273 273 265 259 256 260 265 265 262 264 261 254 247 244 244 246 252 256 252 253 264 268 255 250 246 245 244 241 230 230 238 244 246 245 259 265 255 254 259 263 266 272 276
302 298 290 284 278 262 264 270 272 272 268 256 258 262 263 260 254 254 250 249 248 248 255 260 258 251 248 248 247 229 230 236 243 248 248 247 253 258 258 261 264 268 269 271
298 300 298 293 291 285 273 271 271 272 271 258 248 253 260 267 262 252 251 268 271 254 252 260 256 249 248 250 250 231 231 238 242 244 248 251 255 258 259 260 263 266 267 269
285 286 289 290 289 289 285 275 268 267 271 268 262 260 264 271 270 262 248 250 265 272 270 256 250 256 261 262 240 232 236 241 246 246 248 249 252 257 260 260 261 264 265 265
274 272 275 275 275 280 291 287 275 268 266 265 264 261 259 260 257 260 275 265 256 272 272 257 262 268 273 266 242 239 243 247 249 249 249 249 250 253 258 261 262 263 265 266
277 275 274 278 284 289 290 289 284 273 264 265 264 259 257 266 270 254 254 275 279 281 272 271 278 280 282 265 247 245 246 249 250 250 251 252 253 254 256 259 262 262 263 264
278 277 276 276 276 274 275 284 291 286 280 276 273 267 258 246 254 269 267 268 277 285 280 280 284 285 278 256 251 252 251 250 251 250 248 252 254 255 256 257 259 261 262 263
280 276 269 262 260 268 274 278 280 281 281 285 285 275 268 263 260 264 268 269 270 280 280 274 275 279 268 260 257 256 255 263 269 264 255 254 255 256 258 259 260 260 262 262
289 285 284 284 279 270 268 269 273 278 276 277 284 283 277 275 272 270 270 273 274 275 273 272 270 267 266 264 261 259 258 258 258 259 258 256 255 256 258 257 258 259 261 262